This demonstration page uses our WeatherBlox Daily Observations layout. Learn more.

Left ArrowRight Arrow

38.80484, -77.04692

Hourly Observations for February 6, 2021

Temp ( °F °C ) Dew Point ( °F °C ) Humidity (%) Winds ( mph kmh ) Pressure ( in mb ) Visibility ( mi km ) Precip ( " mm )
12:52 am 00:52 Mostly Cloudy 39 3.9 21 -6.1 48 48 SSW 3 6 29.89 1012 10 16 0.00 0.00
1:52 am 01:52 Mostly Cloudy 35 1.7 26 -3.3 70 70 SSW 5 7 29.91 1013 10 16 0.00 0.00
2:52 am 02:52 Mostly Cloudy 35 1.7 22 -5.6 59 59 S 3 6 29.93 1014 10 16 0.00 0.00
3:52 am 03:52 Cloudy 34 1.1 23 -5 64 64 SSW 7 11 29.96 1015 10 16 0.00 0.00
4:52 am 04:52 Cloudy 36 2.2 20 -6.7 52 52 SW 6 9 29.98 1015 10 16 0.00 0.00
5:52 am 05:52 Cloudy 38 3.3 20 -6.7 48 48 WSW 9 15 29.99 1016 10 16 0.00 0.00
6:52 am 06:52 Mostly Cloudy 36 2.2 26 -3.3 67 67 S 9 15 30.01 1016 10 16 0.00 0.00
7:52 am 07:52 Mostly Cloudy 36 2.2 27 -2.8 70 70 S 9 15 30.05 1018 10 16 0.00 0.00
8:52 am 08:52 Mostly Cloudy 39 3.9 23 -5 53 53 SSW 14 22 30.07 1018 10 16 0.00 0.00
9:52 am 09:52 Mostly Cloudy 44 6.7 24 -4.4 45 45 SSW 13 20 30.09 1019 10 16 0.00 0.00
10:52 am 10:52 Mostly Cloudy 47 8.3 23 -5 39 39 SW 16 26 30.11 1020 10 16 0.00 0.00
11:52 am 11:52 Mostly Cloudy 50 10 22 -5.6 33 33 W 16 26 30.11 1020 10 16 0.00 0.00
12:52 pm 12:52 Mostly Cloudy 50 10 22 -5.6 33 33 W 16 26 30.10 1019 10 16 0.00 0.00
1:52 pm 13:52 Mostly Cloudy 50 10 22 -5.6 33 33 WSW 12 19 30.09 1019 10 16 0.00 0.00
2:52 pm 14:52 Mostly Cloudy 51 10.6 22 -5.6 32 32 W 12 19 30.09 1019 10 16 0.00 0.00
3:52 pm 15:52 Mostly Cloudy 51 10.6 22 -5.6 32 32 WNW 9 15 30.10 1019 10 16 0.00 0.00
4:52 pm 16:52 Cloudy 49 9.4 22 -5.6 35 35 WNW 6 9 30.13 1020 10 16 0.00 0.00
5:52 pm 17:52 Cloudy 45 7.2 25 -3.9 46 46 NNE 3 6 30.11 1020 10 16 0.00 0.00
6:52 pm 18:52 Cloudy 47 8.3 23 -5 39 39 NE 3 6 30.14 1021 10 16 0.00 0.00
7:52 pm 19:52 Cloudy 45 7.2 26 -3.3 48 48 E 5 7 30.14 1021 10 16 0.00 0.00
8:52 pm 20:52 Cloudy 43 6.1 28 -2.2 56 56 ENE 5 7 30.12 1020 10 16 0.00 0.00
9:52 pm 21:52 Cloudy 45 7.2 24 -4.4 44 44 Calm 30.11 1020 10 16 0.00 0.00
10:52 pm 22:52 Cloudy 44 6.7 24 -4.4 45 45 Calm 30.09 1019 10 16 0.00 0.00
11:52 pm 23:52 Cloudy 44 6.7 23 -5 43 43 Calm 30.07 1018 10 16 0.00 0.00

Powered by AerisWeather